Wind_Speed
14 14 14 14 14 14 14 13 13 12 12 12 11 11 11 10 10 11 12 11 7 9 7 10 11 9 9 8 8 8 7 13 14 10 10 13 8 4 4 9 5 1 3 10 12 2 3
14 15 15 14 14 14 15 16 16 15 14 13 13 11 10 10 10 10 11 12 11 8 9 10 12 12 12 13 10 8 4 3 17 13 11 13 3 7 5 2 5 9 10 11 6 5 2
15 15 15 15 14 14 14 15 15 17 17 16 15 14 12 10 10 10 10 11 13 10 9 9 12 14 14 13 12 10 5 5 11 16 13 6 6 6 4 3 2 5 8 8 4 7 9
18 17 17 16 16 15 14 13 13 14 15 16 17 15 15 14 11 9 10 10 12 13 10 10 11 15 14 17 18 10 10 6 6 10 18 15 8 5 6 11 12 9 11 9 4 5 9
20 20 19 18 18 18 17 16 14 13 13 14 14 15 15 15 15 11 9 9 11 14 13 11 12 14 14 17 17 14 9 8 7 6 11 15 8 12 14 15 18 17 11 10 12 12 11
23 22 22 21 20 19 19 18 17 16 14 14 14 13 14 15 16 14 11 9 10 13 16 13 14 10 12 13 16 17 15 11 12 12 12 10 11 13 13 15 15 10 11 14 16 16 19
24 24 25 24 23 23 22 20 19 18 17 16 15 14 12 13 15 15 14 11 9 12 16 16 13 16 11 16 16 15 20 19 17 17 15 12 8 8 4 7 16 16 19 17 16 18 20
27 26 25 25 25 24 24 22 21 20 19 18 17 16 13 13 14 16 13 12 10 11 13 19 19 17 19 18 18 16 21 22 20 19 13 13 12 4 7 11 11 12 16 4 8 7 13
29 28 27 26 25 24 24 23 22 21 19 19 19 17 15 14 15 15 11 12 12 11 15 16 20 21 18 19 17 15 21 17 20 18 14 15 12 8 10 15 5 2 3 2 2 6 7
28 28 28 27 25 24 23 22 22 21 20 18 18 18 16 16 14 12 9 10 11 10 9 10 18 21 22 24 26 20 13 16 18 20 11 10 17 11 13 14 10 5 3 2 7 9 8
28 27 27 26 26 24 23 22 21 20 19 18 17 17 16 17 15 10 12 11 9 7 3 4 12 12 17 27 12 15 22 19 18 19 16 13 7 11 13 13 11 9 10 8 2 4 7
29 28 28 27 26 25 24 21 21 19 18 17 15 14 17 16 14 10 13 12 10 6 8 8 6 14 15 21 20 7 25 20 19 19 22 19 14 13 12 10 11 12 11 12 9 5 3
29 28 27 27 26 25 24 22 20 20 19 16 16 14 14 16 12 13 15 14 8 8 5 8 10 14 15 16 17 18 20 23 23 19 25 24 19 16 15 13 14 14 9 3 3 1 6
30 29 27 27 26 24 24 22 21 20 19 17 17 15 14 16 14 16 17 19 12 6 12 5 11 11 17 21 20 21 17 22 19 23 13 27 19 22 19 19 18 15 12 9 5 3 4
29 29 28 26 25 24 23 22 21 20 20 17 18 16 14 16 17 18 21 25 11 6 10 12 9 12 19 13 20 22 23 22 19 20 18 12 16 13 15 15 16 15 15 12 8 4 1
27 27 27 26 25 23 23 21 20 21 21 18 18 17 16 18 19 22 25 33 27 17 9 4 4 8 11 16 17 24 25 19 30 20 18 18 6 8 15 18 17 19 14 10 12 3 4
25 26 26 25 24 23 22 21 21 21 20 18 17 17 16 21 21 24 31 35 34 26 17 8 7 9 7 8 16 27 20 27 10 21 24 22 22 12 16 17 17 19 16 9 12 7 6
23 23 25 24 24 23 22 21 20 20 19 18 18 18 18 20 22 27 32 32 30 27 28 21 14 12 12 11 12 9 29 25 16 27 20 30 16 16 18 16 13 15 18 22 18 8 11
24 23 23 23 23 23 22 22 21 20 19 19 20 21 22 23 24 27 28 29 30 30 29 23 20 14 17 11 5 1 18 28 25 17 23 25 17 12 14 15 17 17 18 21 22 22 19
27 25 24 23 22 23 22 22 23 22 20 19 20 19 23 23 23 25 26 29 29 27 29 36 26 23 25 20 13 7 8 15 21 24 24 23 21 23 23 21 18 22 21 23 21 23 26
30 26 24 21 21 22 22 22 23 23 20 21 22 21 21 15 25 24 24 21 18 24 25 25 32 29 27 23 22 19 15 7 16 20 19 20 23 24 24 18 15 18 16 19 26 30 26
32 28 24 21 22 23 24 21 22 21 20 21 23 25 26 25 20 23 25 23 24 14 21 25 22 29 30 27 21 18 12 14 15 17 18 17 17 22 20 22 21 21 20 17 15 15 18
31 29 24 22 22 21 21 20 18 19 19 21 24 27 27 25 24 21 16 15 18 23 26 17 19 20 35 34 27 22 14 16 19 17 14 16 22 19 22 22 22 22 26 23 21 20 18
32 30 28 25 24 23 20 19 18 18 18 20 24 27 27 25 22 23 25 22 21 22 34 24 21 20 24 33 39 30 24 20 21 20 20 16 17 20 12 18 4 22 27 29 28 24 22
33 32 30 28 27 22 20 20 20 19 18 20 24 25 25 25 24 22 25 29 26 26 28 35 27 23 25 23 22 32 32 28 29 26 21 23 18 14 11 20 10 18 21 17 22 26 20
34 33 31 30 26 21 19 18 17 18 19 18 21 22 24 25 22 23 24 28 32 33 27 24 28 28 24 26 15 22 16 18 14 17 22 23 23 24 19 7 8 20 20 13 18 24 20
34 35 32 28 24 21 19 18 17 17 17 18 20 21 23 26 20 19 22 26 30 25 29 27 25 19 27 28 24 24 31 23 17 23 20 25 29 32 25 15 11 17 12 10 22 24 10
36 34 32 28 25 22 20 16 13 11 12 14 17 21 22 26 23 24 25 22 26 24 20 21 22 22 19 17 23 15 15 29 28 30 30 28 25 28 27 25 14 17 21 22 18 20 15
39 35 32 29 27 24 20 16 13 11 10 12 15 20 23 25 21 27 28 26 25 20 26 24 18 11 16 14 17 16 6 16 27 28 36 37 32 30 24 27 7 17 17 18 22 21 17
Wind_Direction
279 278 278 276 278 278 275 274 276 279 280 281 285 289 289 287 282 268 246 246 269 268 260 234 220 209 204 187 153 140 136 185 184 173 152 150 113 34 15 340 12 307 276 310 323 313 209
272 280 280 277 273 275 279 280 277 273 274 278 283 283 286 286 284 279 258 241 244 268 256 242 227 215 208 194 210 190 118 179 201 193 161 142 104 334 300 278 349 302 307 314 310 117 206
268 269 276 281 281 277 276 276 277 277 273 271 272 277 277 277 278 278 275 255 238 243 249 249 234 225 216 191 219 231 179 182 210 210 176 175 284 350 303 300 327 310 304 308 304 195 209
268 270 270 273 279 284 284 283 281 281 277 274 270 268 272 273 274 278 272 270 255 233 246 240 237 228 224 199 213 226 233 188 202 233 216 217 239 300 265 264 273 291 285 274 273 279 216
266 268 270 270 272 274 279 280 284 284 286 282 278 272 268 270 271 270 274 272 263 235 239 236 233 230 224 221 214 210 211 212 181 226 232 225 270 272 267 268 268 275 258 263 269 270 257
264 267 267 269 270 270 273 276 278 282 285 287 286 281 276 268 268 267 269 268 259 246 232 239 238 227 222 215 211 208 195 204 208 219 229 237 253 256 254 255 254 250 249 267 284 262 242
260 260 265 266 267 269 268 270 274 277 279 281 286 286 282 278 268 265 261 266 253 245 239 233 242 217 213 211 205 197 193 200 201 224 223 224 235 243 221 310 299 289 263 300 301 272 245
262 263 262 262 264 263 266 266 268 268 272 275 277 281 282 280 274 267 256 259 252 252 243 235 234 236 221 215 215 201 199 212 221 234 217 210 232 206 293 282 305 272 260 272 320 269 240
260 263 264 264 263 263 262 265 265 266 267 269 271 273 277 275 272 268 261 257 257 253 263 235 235 235 221 231 219 220 222 218 220 229 219 224 211 247 264 271 313 190 196 246 150 186 211
257 259 262 264 265 264 263 261 262 265 266 265 267 268 269 269 266 275 258 247 258 265 277 258 230 232 219 222 234 223 224 221 216 224 211 252 240 248 260 264 259 296 259 166 156 192 221
258 260 260 262 264 263 264 263 261 258 261 262 260 262 263 263 263 253 237 230 235 234 355 232 201 204 215 221 231 229 222 215 221 213 210 214 226 234 236 245 255 265 258 269 304 245 261
255 258 260 260 261 263 263 261 261 260 256 257 257 249 254 255 255 244 232 217 206 203 249 175 197 210 204 213 213 221 202 217 225 223 223 228 243 247 254 249 261 259 256 272 293 283 265
255 255 257 259 258 260 261 261 258 258 256 252 252 246 245 250 247 235 222 205 203 211 204 192 207 220 222 222 208 195 206 215 218 215 223 224 234 245 253 261 264 249 241 289 306 302 221
256 256 254 254 257 257 258 257 257 255 256 254 253 247 236 244 235 231 216 203 224 232 183 147 204 232 221 222 216 210 222 221 221 225 234 225 235 237 246 248 252 239 240 209 207 204 259
250 251 254 252 252 254 255 255 257 257 255 250 251 248 240 234 232 225 217 207 212 202 200 247 199 204 226 234 221 212 214 223 231 226 216 215 229 220 234 244 236 222 233 243 224 203 258
245 248 250 253 254 252 254 254 253 255 255 252 248 242 230 230 226 224 219 226 220 195 196 209 235 210 228 220 221 219 221 237 233 235 228 218 209 232 225 214 222 218 213 201 213 135 216
243 244 246 249 252 252 252 254 254 254 256 254 250 245 232 224 223 223 226 228 229 215 233 252 223 247 212 204 226 230 231 223 223 231 232 234 235 224 216 213 219 221 220 204 212 215 176
242 242 246 247 249 251 253 255 256 256 256 252 247 239 234 225 221 224 231 235 239 235 224 243 242 245 255 243 251 260 232 228 224 226 225 225 236 221 212 221 230 234 241 230 221 212 223
239 243 245 245 249 248 251 255 254 252 253 247 237 232 231 225 224 230 233 236 238 238 232 238 232 233 239 235 278 332 220 227 232 233 228 214 213 184 200 218 223 229 233 235 240 244 242
236 242 242 242 244 246 247 251 252 250 245 237 228 224 225 222 226 232 240 243 241 239 237 236 236 236 240 239 228 231 140 203 213 215 221 211 212 216 212 229 220 221 234 236 234 236 245
237 241 237 239 239 244 244 247 249 246 236 228 222 219 222 221 224 234 240 243 249 250 239 239 242 233 240 252 240 236 243 214 216 208 213 218 223 232 241 235 233 231 234 245 243 245 245
231 232 229 238 243 243 245 239 241 236 229 223 220 222 222 223 222 231 237 249 244 235 235 226 241 237 238 247 238 237 248 225 206 204 214 222 231 227 224 224 229 248 253 248 244 248 255
226 227 225 235 229 225 229 232 233 234 230 225 225 229 228 225 225 227 226 236 241 232 221 232 243 240 234 237 240 239 233 212 210 200 206 222 224 214 225 229 235 241 234 239 250 252 257
221 221 219 222 222 222 230 236 235 232 230 226 227 231 234 233 233 229 227 229 237 229 228 210 225 227 231 235 235 235 238 221 208 193 204 210 221 225 218 226 242 249 238 246 253 265 262
213 216 214 219 218 224 233 233 232 231 229 223 228 229 236 241 240 235 233 232 233 229 231 231 236 240 228 227 239 236 246 246 220 208 208 210 215 209 208 217 227 231 230 229 233 249 248
211 211 208 210 213 219 222 224 227 226 228 223 228 231 235 241 244 245 241 235 238 240 243 239 235 241 249 231 221 228 227 223 226 232 201 203 212 224 213 218 209 248 234 239 233 256 241
205 202 201 202 206 211 210 213 217 222 223 222 229 234 238 242 231 237 237 237 238 242 241 235 229 227 242 240 225 226 221 223 215 213 203 206 211 216 214 221 235 220 201 211 223 258 258
202 197 198 199 202 202 203 203 205 219 227 226 231 239 241 243 234 231 235 236 238 241 243 233 238 237 233 241 242 230 198 209 221 223 220 210 208 214 215 227 234 242 222 226 249 261 261
199 194 195 196 197 199 198 198 203 214 225 227 228 241 243 245 241 234 237 240 245 248 248 245 237 218 219 230 241 249 209 203 222 228 230 231 222 220 219 229 234 242 249 250 249 254 265
Height
3166 3166 3166 3166 3165 3166 3167 3167 3168 3168 3167 3167 3166 3166 3166 3166 3165 3165 3165 3166 3166 3167 3168 3168 3170 3172 3174 3176 3175 3176 3177 3179 3180 3182 3183 3185 3186 3186 3185 3186 3186 3185 3186 3186 3185 3184 3183
3162 3163 3163 3163 3162 3163 3163 3163 3163 3164 3164 3164 3164 3164 3163 3163 3163 3163 3162 3162 3163 3164 3165 3166 3167 3169 3172 3174 3174 3174 3174 3176 3179 3180 3182 3184 3185 3185 3184 3185 3185 3184 3185 3185 3184 3185 3183
3159 3159 3160 3160 3160 3159 3159 3160 3160 3161 3161 3160 3160 3161 3160 3160 3160 3160 3160 3160 3160 3161 3162 3163 3165 3166 3168 3172 3172 3173 3174 3175 3177 3179 3181 3182 3182 3183 3184 3184 3185 3184 3184 3184 3185 3185 3185
3155 3155 3156 3157 3157 3156 3156 3156 3156 3157 3157 3157 3157 3156 3157 3158 3156 3157 3158 3158 3158 3158 3158 3160 3161 3163 3165 3168 3168 3171 3172 3174 3175 3178 3179 3179 3180 3181 3183 3183 3184 3184 3183 3182 3183 3184 3186
3150 3151 3152 3152 3153 3153 3153 3153 3153 3153 3154 3153 3153 3153 3154 3154 3154 3154 3154 3155 3154 3155 3156 3157 3159 3160 3163 3164 3166 3169 3169 3172 3174 3176 3176 3178 3179 3181 3182 3181 3181 3181 3180 3180 3181 3181 3181
3144 3145 3146 3147 3149 3149 3149 3149 3149 3149 3150 3150 3150 3149 3150 3150 3150 3151 3151 3151 3151 3152 3154 3155 3155 3160 3160 3162 3163 3165 3168 3169 3171 3174 3176 3178 3178 3178 3178 3178 3177 3177 3178 3178 3178 3178 3176
3137 3139 3140 3141 3143 3144 3145 3145 3146 3146 3146 3146 3146 3147 3146 3146 3146 3147 3149 3149 3151 3152 3150 3152 3153 3154 3155 3158 3160 3162 3165 3167 3169 3172 3173 3175 3176 3175 3176 3177 3175 3176 3176 3175 3173 3172 3173
3130 3132 3133 3135 3136 3138 3139 3140 3141 3142 3142 3143 3143 3144 3144 3143 3142 3142 3145 3146 3146 3148 3147 3147 3149 3151 3152 3155 3157 3160 3163 3166 3167 3168 3170 3172 3171 3173 3174 3174 3171 3171 3172 3174 3172 3171 3171
3124 3125 3126 3128 3130 3132 3133 3134 3135 3136 3137 3138 3139 3140 3141 3140 3139 3140 3142 3144 3143 3143 3143 3143 3145 3147 3151 3153 3154 3157 3160 3162 3163 3165 3167 3167 3168 3169 3171 3172 3172 3170 3170 3170 3170 3170 3170
3116 3118 3120 3121 3123 3125 3127 3128 3129 3130 3132 3132 3134 3136 3137 3137 3139 3140 3140 3139 3141 3142 3141 3140 3139 3141 3145 3148 3149 3153 3155 3159 3160 3161 3164 3165 3165 3166 3168 3168 3170 3169 3169 3168 3169 3169 3169
3109 3111 3113 3115 3117 3118 3120 3122 3123 3124 3126 3127 3128 3131 3133 3133 3135 3137 3137 3137 3138 3141 3141 3136 3135 3137 3139 3143 3148 3148 3151 3154 3156 3159 3163 3163 3162 3163 3164 3165 3167 3167 3167 3167 3167 3167 3167
3101 3103 3106 3108 3110 3112 3114 3115 3117 3119 3120 3122 3123 3126 3128 3129 3132 3134 3133 3135 3137 3141 3135 3133 3133 3133 3136 3138 3143 3145 3147 3151 3154 3156 3158 3158 3159 3161 3162 3162 3164 3164 3165 3165 3164 3164 3163
3093 3096 3098 3100 3102 3104 3107 3109 3111 3113 3115 3117 3118 3120 3123 3124 3128 3129 3130 3133 3137 3132 3131 3131 3131 3132 3134 3136 3139 3142 3144 3146 3148 3151 3152 3155 3156 3158 3159 3160 3160 3161 3163 3164 3165 3164 3161
3086 3089 3091 3094 3095 3097 3100 3101 3104 3106 3108 3111 3113 3115 3117 3120 3122 3124 3126 3131 3130 3125 3126 3127 3129 3130 3131 3134 3136 3139 3140 3143 3144 3146 3149 3151 3153 3154 3155 3156 3157 3158 3161 3161 3163 3163 3159
3079 3081 3084 3086 3088 3090 3093 3095 3097 3100 3102 3105 3107 3109 3111 3114 3117 3120 3123 3122 3121 3126 3126 3124 3125 3126 3127 3130 3133 3135 3136 3138 3141 3143 3146 3147 3149 3150 3150 3153 3155 3155 3156 3159 3159 3159 3158
3071 3074 3077 3080 3082 3083 3086 3088 3091 3093 3096 3099 3101 3103 3106 3108 3111 3114 3115 3113 3116 3123 3123 3122 3122 3124 3125 3127 3130 3130 3132 3131 3134 3139 3141 3144 3146 3146 3147 3149 3151 3152 3154 3156 3156 3159 3159
3063 3067 3070 3073 3075 3078 3080 3083 3085 3087 3089 3092 3094 3097 3101 3101 3104 3107 3106 3108 3110 3118 3121 3121 3119 3121 3122 3122 3122 3124 3126 3129 3130 3134 3137 3140 3143 3145 3145 3146 3147 3150 3150 3151 3152 3152 3151
3057 3060 3063 3066 3069 3071 3073 3076 3079 3081 3083 3086 3088 3092 3093 3095 3100 3098 3099 3103 3109 3112 3117 3116 3117 3118 3119 3118 3118 3118 3120 3123 3126 3129 3130 3135 3137 3139 3141 3143 3144 3146 3147 3148 3148 3148 3148
3050 3054 3056 3059 3062 3064 3067 3070 3073 3075 3078 3080 3082 3086 3086 3089 3092 3093 3095 3097 3100 3104 3111 3113 3113 3115 3115 3116 3117 3115 3116 3119 3121 3122 3124 3128 3130 3134 3138 3140 3140 3140 3142 3143 3144 3144 3143
3043 3047 3050 3053 3056 3059 3061 3064 3067 3070 3072 3076 3079 3081 3081 3084 3087 3088 3090 3092 3095 3098 3102 3105 3108 3111 3111 3111 3114 3112 3112 3115 3116 3118 3121 3123 3124 3127 3129 3132 3135 3137 3137 3138 3140 3139 3138
3036 3040 3044 3047 3050 3054 3056 3059 3061 3064 3067 3071 3072 3074 3075 3077 3081 3083 3086 3087 3091 3093 3097 3100 3102 3105 3107 3108 3109 3109 3110 3111 3113 3115 3116 3119 3120 3123 3126 3129 3131 3132 3133 3134 3133 3135 3135
3029 3033 3037 3041 3044 3048 3051 3053 3056 3059 3062 3065 3067 3069 3071 3073 3077 3080 3082 3084 3087 3091 3092 3094 3096 3100 3103 3103 3105 3105 3106 3109 3109 3112 3112 3114 3116 3118 3121 3125 3127 3127 3129 3130 3130 3131 3131
3021 3026 3031 3036 3039 3043 3046 3049 3051 3053 3057 3058 3061 3063 3066 3068 3072 3076 3079 3079 3081 3084 3086 3089 3090 3092 3095 3098 3098 3101 3103 3104 3105 3106 3108 3110 3112 3114 3116 3121 3122 3123 3122 3125 3126 3126 3127
3014 3020 3025 3030 3034 3038 3041 3044 3047 3049 3052 3055 3057 3060 3062 3064 3068 3071 3073 3075 3077 3079 3079 3081 3083 3084 3088 3090 3092 3094 3096 3099 3100 3100 3103 3105 3108 3112 3114 3116 3117 3115 3119 3120 3121 3121 3122
3007 3013 3018 3024 3029 3033 3037 3039 3042 3044 3047 3051 3052 3055 3056 3058 3061 3066 3068 3070 3071 3074 3075 3077 3079 3080 3081 3086 3086 3087 3090 3093 3092 3096 3098 3101 3105 3107 3109 3108 3109 3108 3113 3115 3115 3116 3117
3000 3006 3013 3019 3024 3029 3032 3035 3038 3041 3044 3047 3047 3050 3053 3055 3058 3059 3063 3065 3066 3068 3070 3072 3074 3076 3078 3080 3082 3081 3082 3084 3087 3089 3093 3096 3100 3103 3104 3104 3103 3104 3109 3111 3112 3109 3113
2993 3000 3007 3014 3019 3024 3028 3032 3035 3037 3040 3043 3044 3046 3048 3050 3053 3055 3057 3060 3061 3063 3065 3068 3069 3072 3071 3073 3073 3074 3075 3079 3081 3084 3087 3089 3092 3094 3097 3099 3097 3101 3103 3106 3109 3107 3106
2988 2995 3003 3009 3015 3021 3025 3029 3031 3033 3036 3039 3041 3042 3044 3044 3049 3050 3052 3054 3055 3059 3060 3062 3066 3065 3068 3070 3071 3065 3064 3069 3073 3077 3081 3084 3087 3089 3093 3093 3095 3097 3100 3101 3103 3104 3104
2983 2990 2998 3005 3011 3017 3022 3026 3029 3031 3033 3036 3038 3038 3039 3040 3045 3045 3046 3049 3051 3055 3057 3058 3061 3060 3063 3065 3064 3060 3058 3063 3065 3070 3076 3079 3079 3084 3088 3086 3090 3092 3095 3097 3098 3100 3102